Location: Wapato
(46.4478°N, 120.4212°W)
Time: 15:15:00
(UTC+00:00)

Explorer 7 - Pass Details

Date: 17 May 2026
Orbit: 426 x 534 km, 50.2° (Epoch: 8 June)

Event Time Altitude Azimuth Distance (km) Brightness Sun altitude
Rises 16:37:36 0° 291° (WNW) 2,522 9.7 41.1°
Reaches altitude 10° 16:39:44 10° 294° (WNW) 1,662 8.9 41.5°
Maximum altitude 16:43:30 75° 19° (NNE) 517 7.4 42.1°
Drops below altitude 10° 16:47:25 10° 106° (ESE) 1,722 10.5 42.7°
Sets 16:49:39 0° 108° (ESE) 2,624 11.1 43.1°
